Weather History for KUKI - December, 2014

Change the Weather History Date:

Sunday, December 14, 2014

  Actual Average Record
Temperature  
Mean Temperature 49 °F 45 °F  
Max Temperature 54 °F 55 °F 76 °F (1958)
Min Temperature 44 °F 36 °F 16 °F (1940)
Degree Days  
Heating Degree Days 16 20  
Month to date heating degree days 140 269  
Since 1 July heating degree days 541 892  
Cooling Degree Days 0 0  
Month to date cooling degree days 0 0  
Year to date cooling degree days 1290 835  
Moisture  
Dew Point 43 °F    
Average Humidity 82    
Maximum Humidity 100    
Minimum Humidity 64    
Precipitation  
Precipitation 0.05 in 0.22 in 4.60 in (2002)
Month to date precipitation 8.88 2.59  
Year to date precipitation 31.87 32.99  
Since 1 July precipitation 15.24 9.61  
Snow  
Snow 0.00 in - - ()
Month to date snowfall 0.0  
Since 1 July snowfall 0.0  
Snow Depth 0.00 in    
Sea Level Pressure  
Sea Level Pressure 30.05 in    
Wind  
Wind Speed 5 mph (SE)    
Max Wind Speed 16 mph    
Max Gust Speed 26 mph    
Visibility 6 miles    
Events Fog , Rain    
T = Trace of Precipitation, MM = Missing Value Source: NWS Daily Summary

Daily Weather History Graph

Daily Weather History Graph

Search for Another Location

Airport or City:

Trip Planner

Search our weather history database for the weather conditions in past years. The results will help you decide how hot, cold, wet, or windy it might be!

Date:

Astronomy

Dec. 14, 2014 Rise Set
Actual Time 7:24 AM PST 4:50 PM PST
Civil Twilight 6:54 AM PST 5:20 PM PST
Nautical Twilight 6:20 AM PST 5:54 PM PST
Astronomical Twilight 5:48 AM PST 6:27 PM PST
Moon No Moon Rise 12:21 PM PST (12/14)
Length of Visible Light 10h 26m
Length of Day
9h 26m
Waning Gibbous, 47% of the Moon is Illuminated
Dec 14
Waning Gibbous
Dec 21
New
Dec 28
First Quarter
Jan 4
Full
Jan 13
Last Quarter

Hourly Weather History & Observations

Time (PST) Temp. Windchill Dew Point Humidity Pressure Visibility Wind Dir Wind Speed Gust Speed Precip Events Conditions
12:17 AM 45.0 °F - 44.1 °F 97% 30.16 in 1.8 mi Calm Calm - N/A   Overcast
12:31 AM 45.0 °F - 44.1 °F 97% 30.15 in 3.0 mi Calm Calm - N/A   Overcast
12:56 AM 45.0 °F - 44.1 °F 97% 30.15 in 5.0 mi Calm Calm - N/A   Overcast
1:56 AM 45.0 °F - 43.0 °F 93% 30.13 in 6.0 mi Calm Calm - N/A   Overcast
2:08 AM 45.0 °F - 44.1 °F 97% 30.13 in 1.8 mi Calm Calm - N/A   Overcast
2:32 AM 45.0 °F - 44.1 °F 97% 30.13 in 3.0 mi Calm Calm - N/A   Overcast
2:56 AM 45.0 °F - 44.1 °F 97% 30.12 in 4.0 mi Calm Calm - N/A   Overcast
3:20 AM 45.0 °F - 44.1 °F 97% 30.12 in 1.8 mi Calm Calm - N/A   Overcast
3:29 AM 45.0 °F - 44.1 °F 97% 30.12 in 3.0 mi Calm Calm - N/A   Overcast
3:46 AM 45.0 °F - 43.0 °F 93% 30.10 in 1.8 mi Calm Calm - N/A   Overcast
3:56 AM 45.0 °F - 43.0 °F 93% 30.09 in 2.0 mi Calm Calm - N/A   Overcast
4:28 AM 44.1 °F - 43.0 °F 96% 30.09 in 1.0 mi Calm Calm - N/A   Overcast
4:34 AM 44.1 °F - 43.0 °F 96% 30.09 in 3.0 mi Calm Calm - N/A   Overcast
4:41 AM 44.1 °F - 43.0 °F 96% 30.09 in 1.5 mi Calm Calm - N/A   Overcast
4:56 AM 44.1 °F - 43.0 °F 96% 30.08 in 0.2 mi Calm Calm - N/A Fog Fog
5:03 AM 44.1 °F - 43.0 °F 96% 30.08 in 0.8 mi Calm Calm - N/A   Mist
5:07 AM 44.1 °F - 43.0 °F 96% 30.08 in 2.0 mi Calm Calm - N/A   Overcast
5:15 AM 44.1 °F 42.5 °F 43.0 °F 96% 30.08 in 6.0 mi WNW 3.5 mph - N/A   Overcast
5:27 AM 45.0 °F 43.5 °F 43.0 °F 93% 30.08 in 1.8 mi NNW 3.5 mph - N/A   Overcast
5:46 AM 45.0 °F - 44.1 °F 97% 30.08 in 2.5 mi Calm Calm - N/A   Overcast
5:52 AM 44.6 °F - 44.6 °F 100% 30.08 in 3.0 mi Calm Calm - N/A   Overcast
5:56 AM 45.0 °F - 44.1 °F 97% 30.08 in 4.0 mi Calm Calm - N/A   Overcast
6:12 AM 45.0 °F - 43.0 °F 93% 30.08 in 6.0 mi Calm Calm - N/A   Overcast
6:56 AM 45.0 °F - 44.1 °F 97% 30.09 in 7.0 mi Calm Calm - N/A   Overcast
7:40 AM 44.1 °F - 43.0 °F 96% 30.09 in 8.0 mi Calm Calm - N/A   Overcast
7:56 AM 45.0 °F 43.5 °F 43.0 °F 93% 30.08 in 8.0 mi SSE 3.5 mph - N/A   Mostly Cloudy
8:56 AM 48.0 °F - 44.1 °F 86% 30.08 in 10.0 mi SSE 4.6 mph - N/A   Partly Cloudy
9:56 AM 50.0 °F - 43.0 °F 77% 30.09 in 10.0 mi South 5.8 mph - N/A   Partly Cloudy
10:56 AM 52.0 °F - 42.1 °F 69% 30.05 in 10.0 mi SSE 5.8 mph - N/A   Scattered Clouds
11:56 AM 53.1 °F - 42.1 °F 66% 30.01 in 10.0 mi SE 6.9 mph - N/A   Partly Cloudy
12:56 PM 53.1 °F - 41.0 °F 64% 29.98 in 10.0 mi SE 9.2 mph - N/A   Partly Cloudy
1:56 PM 53.1 °F - 42.1 °F 66% 29.99 in 10.0 mi ESE 11.5 mph - N/A   Mostly Cloudy
2:56 PM 53.1 °F - 42.1 °F 66% 29.98 in 10.0 mi ESE 9.2 mph - 0.00 in Rain Light Rain
3:56 PM 52.0 °F - 41.0 °F 66% 29.98 in 10.0 mi ESE 11.5 mph - 0.00 in   Overcast
4:56 PM 51.1 °F - 41.0 °F 68% 29.98 in 10.0 mi East 13.8 mph - N/A   Overcast
5:56 PM 51.1 °F - 41.0 °F 68% 29.98 in 10.0 mi East 11.5 mph 20.7 mph N/A   Overcast
6:53 PM 51.8 °F - 42.8 °F 71% 29.98 in 10.0 mi ESE 9.2 mph 17.3 mph 0.00 in   Overcast
6:56 PM 51.1 °F - 42.1 °F 71% 29.98 in 10.0 mi ESE 11.5 mph 16.1 mph 0.00 in   Overcast
7:06 PM 51.1 °F - 42.1 °F 71% 29.98 in 10.0 mi ESE 9.2 mph - N/A   Overcast
7:22 PM 51.1 °F - 42.1 °F 71% 29.98 in 10.0 mi ESE 8.1 mph - N/A   Overcast
7:32 PM 51.1 °F - 42.1 °F 71% 29.98 in 10.0 mi ESE 11.5 mph - N/A   Overcast
7:45 PM 50.0 °F - 42.1 °F 74% 29.98 in 7.0 mi ESE 11.5 mph - 0.01 in Rain Light Rain
7:56 PM 50.0 °F - 43.0 °F 77% 29.98 in 7.0 mi ESE 9.2 mph - 0.01 in Rain Light Rain
8:56 PM 50.0 °F - 44.1 °F 80% 29.97 in 10.0 mi WSW 4.6 mph - 0.00 in   Overcast
9:56 PM 50.0 °F - 43.0 °F 77% 29.96 in 10.0 mi Calm Calm - 0.00 in   Overcast
10:56 PM 48.9 °F - 45.0 °F 86% 29.96 in 6.0 mi Calm Calm - 0.03 in Rain Light Rain
11:56 PM 48.9 °F - 44.1 °F 83% 29.95 in 10.0 mi Calm Calm - 0.01 in   Overcast